| time (UTC) | temp F | wind direction | speed MPH | gust MPH | rain 1hr in | rain 24hr in | rain mn in | humidity % | barometer mb |
| 20260504234555 | 74 | 213 | 3.0 | 17.0 | 0.00 | 0.00 | 0.00 | 37 | 1008.6 |
| 20260504233537 | 75 | 230 | 3.0 | 9.0 | 0.00 | 0.00 | 0.00 | 36 | 1008.4 |
| 20260504232505 | 75 | 231 | 3.0 | 14.0 | 0.00 | 0.00 | 0.00 | 36 | 1008.4 |
| 20260504231448 | 75 | 165 | 5.0 | 14.0 | 0.00 | 0.00 | 0.00 | 35 | 1008.3 |
| 20260504230442 | 76 | 162 | 4.0 | 11.0 | 0.00 | 0.00 | 0.00 | 35 | 1008.3 |
| 20260504224320 | 76 | 156 | 3.0 | 15.0 | 0.00 | 0.00 | 0.00 | 34 | 1008.3 |
| 20260504223248 | 76 | 175 | 5.0 | 15.0 | 0.00 | 0.00 | 0.00 | 34 | 1008.4 |
| 20260504222308 | 76 | 218 | 5.0 | 12.0 | 0.00 | 0.00 | 0.00 | 33 | 1008.4 |
| 20260504220131 | 76 | 96 | 5.0 | 25.0 | 0.00 | 0.00 | 0.00 | 33 | 1008.2 |
| 20260504214012 | 76 | 263 | 8.0 | 22.0 | 0.00 | 0.00 | 0.00 | 33 | 1008.3 |
| 20260504212950 | 77 | 244 | 5.0 | 14.0 | 0.00 | 0.00 | 0.00 | 31 | 1008.3 |
| 20260504210854 | 79 | 163 | 5.0 | 12.0 | 0.00 | 0.00 | 0.00 | 30 | 1008.3 |
| 20260504205820 | 79 | 145 | 5.0 | 10.0 | 0.00 | 0.00 | 0.00 | 29 | 1008.2 |
| 20260504204800 | 79 | 184 | 4.0 | 14.0 | 0.00 | 0.00 | 0.00 | 30 | 1008.4 |
| 20260504203813 | 79 | 175 | 4.0 | 14.0 | 0.00 | 0.00 | 0.00 | 28 | 1008.4 |
| 20260504202812 | 79 | 189 | 4.0 | 13.0 | 0.00 | 0.00 | 0.00 | 29 | 1008.5 |
| 20260504201749 | 79 | 250 | 3.0 | 10.0 | 0.00 | 0.00 | 0.00 | 29 | 1008.7 |
| 20260504200801 | 79 | 186 | 3.0 | 9.0 | 0.00 | 0.00 | 0.00 | 30 | 1008.8 |
| 20260504194546 | 79 | 229 | 3.0 | 11.0 | 0.00 | 0.00 | 0.00 | 30 | 1009.0 |
| 20260504193540 | 77 | 244 | 4.0 | 13.0 | 0.00 | 0.00 | 0.00 | 30 | 1009.2 |
| 20260504192531 | 77 | 213 | 5.0 | 13.0 | 0.00 | 0.00 | 0.00 | 30 | 1009.3 |
| 20260504190407 | 78 | 166 | 4.0 | 12.0 | 0.00 | 0.00 | 0.00 | 32 | 1009.7 |
| 20260504185424 | 77 | 167 | 5.0 | 12.0 | 0.00 | 0.00 | 0.00 | 31 | 1010.0 |
| 20260504184412 | 78 | 157 | 4.0 | 10.0 | 0.00 | 0.00 | 0.00 | 30 | 1010.1 |
| 20260504183357 | 79 | 184 | 3.0 | 10.0 | 0.00 | 0.00 | 0.00 | 29 | 1010.2 |
| 20260504182343 | 79 | 227 | 4.0 | 14.0 | 0.00 | 0.00 | 0.00 | 30 | 1010.4 |
| 20260504180151 | 78 | 148 | 3.0 | 11.0 | 0.00 | 0.00 | 0.00 | 32 | 1010.8 |
| 20260504175209 | 77 | 268 | 4.0 | 11.0 | 0.00 | 0.00 | 0.00 | 31 | 1011.0 |
| 20260504174155 | 78 | 117 | 3.0 | 11.0 | 0.00 | 0.00 | 0.00 | 31 | 1011.1 |
| 20260504172101 | 76 | 254 | 3.0 | 9.0 | 0.00 | 0.00 | 0.00 | 33 | 1011.2 |
| 20260504171111 | 76 | 243 | 4.0 | 11.0 | 0.00 | 0.00 | 0.00 | 31 | 1011.5 |
| 20260504151016 | 74 | 136 | 3.0 | 9.0 | 0.00 | 0.00 | 0.00 | 29 | 1012.8 |
| 20260504140952 | 68 | 251 | 3.0 | 8.0 | 0.00 | 0.00 | 0.00 | 36 | 1013.1 |
| 20260504081528 | 52 | 211 | 0.0 | 4.0 | 0.00 | 0.00 | 0.00 | 60 | 1014.3 |
| 20260504080457 | 52 | 215 | 0.0 | 1.0 | 0.00 | 0.00 | 0.00 | 60 | 1014.4 |
| 20260504070402 | 53 | 191 | 0.0 | 0.0 | 0.00 | 0.00 | 0.00 | 54 | 1014.3 |
| 20260504050121 | 49 | 263 | 0.0 | 0.0 | 0.00 | 0.00 | 0.00 | 60 | 1014.7 |
| 20260504045105 | 49 | 263 | 0.0 | 0.0 | 0.00 | 0.00 | 0.00 | 60 | 1014.7 |
| 20260504044054 | 49 | 263 | 0.0 | 0.0 | 0.00 | 0.00 | 0.00 | 58 | 1014.8 |
| 20260504041943 | 49 | 263 | 0.0 | 0.0 | 0.00 | 0.00 | 0.00 | 58 | 1014.7 |
| 20260504040958 | 49 | 263 | 0.0 | 0.0 | 0.00 | 0.00 | 0.00 | 59 | 1014.6 |
| 20260504040000 | 48 | 263 | 0.0 | 0.0 | 0.00 | 0.00 | 0.00 | 58 | 1014.7 |
| 20260504033741 | 49 | 263 | 0.0 | 0.0 | 0.00 | 0.00 | 0.00 | 56 | 1014.7 |
| 20260504032713 | 49 | 263 | 0.0 | 0.0 | 0.00 | 0.00 | 0.00 | 56 | 1014.6 |
| 20260504031707 | 50 | 263 | 0.0 | 0.0 | 0.00 | 0.00 | 0.00 | 56 | 1014.5 |
| 20260504025512 | 50 | 263 | 0.0 | 0.0 | 0.00 | 0.00 | 0.00 | 54 | 1014.5 |
| 20260504023359 | 50 | 263 | 0.0 | 0.0 | 0.00 | 0.00 | 0.00 | 55 | 1014.3 |
| 20260504022351 | 50 | 263 | 0.0 | 0.0 | 0.00 | 0.00 | 0.00 | 55 | 1014.2 |
| 20260504021341 | 50 | 263 | 0.0 | 0.0 | 0.00 | 0.00 | 0.00 | 55 | 1014.1 |
| 20260504020325 | 51 | 263 | 0.0 | 0.0 | 0.00 | 0.00 | 0.00 | 52 | 1014.1 |
| 20260504015343 | 52 | 263 | 0.0 | 0.0 | 0.00 | 0.00 | 0.00 | 52 | 1014.0 |
| 20260504014407 | 53 | 263 | 0.0 | 0.0 | 0.00 | 0.00 | 0.00 | 49 | 1013.9 |
| 20260504013429 | 53 | 263 | 0.0 | 0.0 | 0.00 | 0.00 | 0.00 | 48 | 1013.9 |
| 20260504012403 | 54 | 263 | 0.0 | 0.0 | 0.00 | 0.00 | 0.00 | 46 | 1013.8 |
| 20260504011340 | 55 | 263 | 0.0 | 0.0 | 0.00 | 0.00 | 0.00 | 45 | 1013.8 |
| 20260504010347 | 56 | 263 | 0.0 | 0.0 | 0.00 | 0.00 | 0.00 | 43 | 1013.8 |
| 20260504005403 | 56 | 263 | 0.0 | 0.0 | 0.00 | 0.00 | 0.00 | 42 | 1013.8 |
| 20260504004350 | 57 | 263 | 0.0 | 0.0 | 0.00 | 0.00 | 0.00 | 41 | 1013.6 |
| 20260504002238 | 59 | 263 | 0.0 | 1.0 | 0.00 | 0.00 | 0.00 | 34 | 1013.5 |
| 20260504001237 | 60 | 263 | 0.0 | 1.0 | 0.00 | 0.00 | 0.00 | 32 | 1013.5 |
| 20260504000211 | 61 | 263 | 0.0 | 1.0 | 0.00 | 0.00 | 0.00 | 32 | 1013.3 |
| 20260503235222 | 61 | 263 | 0.0 | 6.0 | 0.00 | 0.00 | 0.00 | 31 | 1013.2 |